This demonstration page uses our WeatherBlox Daily Observations layout. Learn more.

Left ArrowRight Arrow

30.21309, -93.2044

Hourly Observations for May 19, 2015

Temp ( °F °C ) Dew Point ( °F °C ) Humidity (%) Winds ( mph kmh ) Pressure ( in mb ) Visibility ( mi km ) Precip ( " mm )
12:15 am 00:15 Clear 69 20.4 67 19.4 94 94 Calm 30.12 1020 10 16 0.00 0.00
12:35 am 00:35 Clear 68 20.1 67 19.2 95 95 ENE 3 6 30.12 1020 10 16 0.00 0.00
12:55 am 00:55 Clear 68 20 67 19.2 95 95 ENE 3 6 30.12 1020 10 16 0.00 0.00
1:15 am 01:15 Clear 68 20.1 67 19.2 95 95 NE 5 7 30.12 1020 10 16 0.00 0.00
1:35 am 01:35 Clear 68 20.1 67 19.5 96 96 NE 5 7 30.09 1019 10 16 0.00 0.00
1:55 am 01:55 Clear 68 20 67 19.4 96 96 NE 6 9 30.09 1019 10 16 0.00 0.00
2:15 am 02:15 Clear 68 20 67 19.3 96 96 NE 5 7 30.09 1019 10 16 0.00 0.00
2:35 am 02:35 Clear 68 19.9 67 19.2 96 96 ENE 5 7 30.09 1019 10 16 0.00 0.00
2:55 am 02:55 Partly Cloudy 68 19.9 67 19.4 97 97 ENE 5 7 30.09 1019 10 16 0.00 0.00
3:15 am 03:15 Partly Cloudy 68 20.1 67 19.6 97 97 NE 5 7 30.09 1019 10 16 0.00 0.00
3:35 am 03:35 Mostly Cloudy 68 20.1 67 19.7 98 98 NE 6 9 30.09 1019 10 16 0.00 0.00
3:55 am 03:55 Cloudy 68 20.2 68 19.9 98 98 NE 5 7 30.09 1019 7 11 0.00 0.00
4:15 am 04:15 Cloudy with Mist and Fog 68 20.2 68 20 99 99 NE 5 7 30.09 1019 3 4 0.00 0.00
4:35 am 04:35 Cloudy with Mist and Fog 69 20.3 68 20.1 99 99 ENE 7 11 30.09 1019 1 2 0.00 0.00
4:55 am 04:55 Cloudy with Mist and Fog 69 20.4 68 20.2 99 99 NE 7 11 30.09 1019 1 2 0.00 0.00
5:15 am 05:15 Cloudy with Mist and Fog 69 20.5 69 20.4 99 99 NE 5 7 30.09 1019 1 2 0.00 0.00
6:00 am 06:00 Cloudy with Fog 70 21 70 21 100 100 ENE 7 11 30.09 1019 1 1 0.00 0.00
6:55 am 06:55 Cloudy with Fog 70 21 70 21 100 100 ENE 7 11 30.09 1019 1 1 0.00 0.00
7:55 am 07:55 Cloudy with Fog 70 21 70 21 100 100 ENE 7 11 30.09 1019 1 1 0.00 0.00
8:45 am 08:45 Cloudy with Mist and Fog 72 22 72 22 100 100 ENE 6 9 30.12 1020 2 2 0.00 0.00
9:45 am 09:45 Cloudy with Mist and Fog 73 23 72 22 94 94 E 3 6 30.12 1020 3 5 0.00 0.00
10:45 am 10:45 Cloudy 77 25 73 23 89 89 E 6 9 30.12 1020 7 11 0.00 0.00
11:45 am 11:45 Cloudy 79 26 73 23 84 84 ENE 3 6 30.09 1019 10 16 0.00 0.00
12:50 pm 12:50 Mostly Cloudy 82 28 73 23 74 74 SE 10 17 30.09 1019 10 16 0.00 0.00
3:30 pm 15:30 Mostly Cloudy with Strong Thunderstorms 75 24 72 22 89 89 S 6 9 30.06 1018 5 8 0.00 0.00
3:55 pm 15:55 Mostly Cloudy with Thunderstorms 73 23 72 22 94 94 E 9 15 30.06 1018 5 8 0.00 0.00
4:50 pm 16:50 Mostly Cloudy 75 24 73 23 94 94 ESE 6 9 30.03 1017 10 16 0.00 0.00
5:50 pm 17:50 Partly Cloudy 82 28 75 24 79 79 E 6 9 30.03 1017 10 16 0.00 0.00
9:50 pm 21:50 Mostly Clear 73 23 73 23 100 100 Calm 30.00 1016 10 16 0.00 0.00
10:15 pm 22:15 Clear 73 23 73 22.5 97 97 SSE 3 6 30.00 1016 10 16 0.00 0.00
10:35 pm 22:35 Clear 73 22.7 72 22.2 97 97 Calm 30.00 1016 10 16 0.00 0.00
10:55 pm 22:55 Clear 73 22.6 72 22.1 97 97 SE 3 6 30.00 1016 10 16 0.00 0.00
11:15 pm 23:15 Clear 73 23 72 22.4 96 96 SSW 3 6 30.00 1016 10 16 0.00 0.00
11:35 pm 23:35 Clear 74 23.5 73 22.6 95 95 S 5 7 30.00 1016 10 16 0.00 0.00
11:55 pm 23:55 Clear 74 23.3 73 22.5 95 95 Calm 30.00 1016 10 16 0.00 0.00

Powered by AerisWeather